Location: Gandikunta
(16.3784°N, 80.8378°E)
Time: 07:16:38
(UTC+00:00)

SPELTRA - Pass Details

Date: 19 May 2025
Orbit: 541 x 26585 km, 7.6° (Epoch: 18 June)

Event Time Altitude Azimuth Distance (km) Brightness Sun altitude
Exits shadow 21:58:16 33° 154° (SSE) 1,481 4.3 -27.9°
Drops below altitude 10° 22:06:02 10° 102° (ESE) 4,668 7.5 -26.3°
Sets 22:14:18 0° 95° (E) 8,122 9.0 -24.7°
